Chino, CA

12:23 AM PDT on October 01, 2016 (GMT -0700)
Chino

Weather History for KCNO - October, 2013

Change the Weather History Date:

Friday, October 4, 2013

  Actual Average Record
Temperature  
Mean Temperature 68 °F -  
Max Temperature 86 °F 82 °F 104 °F (2014)
Min Temperature 53 °F 50 °F 45 °F (2002)
Cooling Degree Days 4    
Growing Degree Days 18 (Base 50)    
Moisture  
Dew Point 37 °F    
Average Humidity 54    
Maximum Humidity 94    
Minimum Humidity 6    
Precipitation  
Precipitation 0.00 in - - ()
Sea Level Pressure  
Sea Level Pressure 29.94 in    
Wind  
Wind Speed 3 mph (NE)    
Max Wind Speed 18 mph    
Max Gust Speed 31 mph    
Visibility 6 miles    
Events      
Averages and records for this station are not official NWS values.
T = Trace of Precipitation, MM = Missing Value Source: NWS Daily Summary

Daily Weather History Graph

Daily Weather History Graph

Search for Another Location

Airport or City:

Trip Planner

Search our weather history database for the weather conditions in past years. The results will help you decide how hot, cold, wet, or windy it might be!

Date:

Astronomy

Oct. 04, 2013 Rise Set
Actual Time 6:47 AM PDT 6:30 PM PDT
Civil Twilight 6:22 AM PDT 6:55 PM PDT
Nautical Twilight 5:53 AM PDT 7:24 PM PDT
Astronomical Twilight 5:24 AM PDT 7:53 PM PDT
Moon 6:27 AM PDT (10/4) 6:17 PM PDT (10/4)
Length of Visible Light 12h 32m
Length of Day
11h 42m
Waning Crescent, 0% of the Moon is Illuminated
Oct 4
Waning Crescent
Oct 4
New
Oct 11
First Quarter
Oct 18
Full
Oct 26
Last Quarter

Hourly Weather History & Observations

Time (PDT) Temp. Dew Point Humidity Pressure Visibility Wind Dir Wind Speed Gust Speed Precip Events Conditions
12:23 AM 60.8 °F 55.4 °F 82% 29.90 in 6.0 mi Calm Calm - N/A   Mostly Cloudy
12:53 AM 61.0 °F 57.0 °F 87% 29.90 in 5.0 mi Calm Calm - N/A   Overcast
1:53 AM 61.0 °F 55.9 °F 83% 29.91 in 6.0 mi Calm Calm - N/A   Haze
2:01 AM 60.8 °F 55.4 °F 82% 29.92 in 6.0 mi Calm Calm - N/A   Haze
2:29 AM 60.8 °F 55.4 °F 82% 29.91 in 5.0 mi Calm Calm - N/A   Haze
2:53 AM 57.9 °F 55.0 °F 90% 29.90 in 3.0 mi Calm Calm - N/A   Partly Cloudy
3:15 AM 59.0 °F 55.4 °F 88% 29.91 in 4.0 mi Calm Calm - N/A   Mostly Cloudy
3:53 AM 57.9 °F 55.0 °F 90% 29.90 in 4.0 mi Calm Calm - N/A   Scattered Clouds
4:53 AM 55.9 °F 54.0 °F 93% 29.91 in 3.0 mi Calm Calm - N/A   Clear
5:12 AM 55.4 °F 53.6 °F 94% 29.92 in 2.0 mi Calm Calm - N/A   Clear
5:19 AM 55.4 °F 53.6 °F 94% 29.92 in 1.5 mi Calm Calm - N/A   Partly Cloudy
5:32 AM 55.4 °F 53.6 °F 94% 29.92 in 3.0 mi Calm Calm - N/A   Clear
5:42 AM 55.4 °F 51.8 °F 88% 29.92 in 2.5 mi Calm Calm - N/A   Clear
5:53 AM 55.0 °F 53.1 °F 93% 29.92 in 3.0 mi Calm Calm - N/A   Clear
6:25 AM 53.6 °F 51.8 °F 94% 29.93 in 2.5 mi Calm Calm - N/A   Clear
6:53 AM 53.1 °F 51.1 °F 93% 29.94 in 3.0 mi North 3.5 mph - N/A   Clear
7:53 AM 57.0 °F 55.0 °F 93% 29.95 in 4.0 mi Calm Calm - N/A   Clear
8:00 AM 57.2 °F 55.4 °F 94% 29.96 in 4.0 mi Calm Calm - N/A   Clear
8:53 AM 64.0 °F 55.9 °F 75% 29.96 in 4.0 mi Calm Calm - N/A   Haze
9:53 AM 77.0 °F 30.0 °F 18% 29.97 in 6.0 mi NE 10.4 mph 20.7 mph N/A   Haze
10:53 AM 81.0 °F 15.1 °F 8% 29.97 in 4.0 mi East 12.7 mph 25.3 mph N/A   Widespread Dust
11:53 AM 82.9 °F 17.1 °F 9% 29.97 in 10.0 mi NE 12.7 mph 24.2 mph N/A   Clear
12:53 PM 84.0 °F 16.0 °F 8% 29.95 in 10.0 mi NE 10.4 mph 20.7 mph N/A   Clear
1:53 PM 84.9 °F 12.9 °F 7% 29.93 in 10.0 mi NE 10.4 mph 21.9 mph N/A   Clear
2:53 PM 84.9 °F 10.9 °F 6% 29.92 in 10.0 mi NE 11.5 mph 21.9 mph N/A   Clear
3:53 PM 84.9 °F 10.0 °F 6% 29.92 in 10.0 mi ENE 13.8 mph 23.0 mph N/A   Clear
4:53 PM 82.0 °F 9.0 °F 6% 29.93 in 10.0 mi NE 12.7 mph 28.8 mph N/A   Clear
5:53 PM 78.1 °F 10.9 °F 8% 29.94 in 10.0 mi NE 12.7 mph 31.1 mph N/A   Clear
6:53 PM 75.0 °F 14.0 °F 10% 29.96 in 10.0 mi NE 11.5 mph 27.6 mph N/A   Clear
7:53 PM 75.0 °F 14.0 °F 10% 29.99 in 10.0 mi ENE 18.4 mph 31.1 mph N/A   Clear
8:53 PM 75.0 °F 16.0 °F 11% 30.02 in 8.0 mi ENE 11.5 mph 18.4 mph N/A   Clear
9:53 PM 75.0 °F 17.1 °F 11% 30.02 in 5.0 mi ENE 13.8 mph 29.9 mph N/A   Haze
10:53 PM 75.0 °F 17.1 °F 11% 30.04 in 9.0 mi ENE 10.4 mph 26.5 mph N/A   Clear
11:53 PM 75.0 °F 16.0 °F 11% 30.04 in 7.0 mi ENE 13.8 mph 27.6 mph N/A   Clear